Vertical_Velocity
-5 -5 -5 -5 -5 -4 -4 -3 -1 -0 0 1 1 2 2 1 -0 -1 -2 -2 -3 -4 -4 -4 -4 -3 -2 -2 -3 -3 -3 -3 -3 -4 -4 -3 -3 -2 -1 -1 -2 -3 -3 -3 -1 0 2 2 1 1 -0 -1 -1 -1 -1 -1 -0 0 1 3 4 5 4 3 -1 -1 -0 -0 -2
-5 -5 -4 -3 -3 -2 -1 -1 -0 0 0 1 1 1 1 1 -0 -0 -0 -0 -2 -2 -3 -4 -3 -3 -3 -4 -3 -3 -4 -4 -4 -4 -4 -4 -5 -4 -2 -1 -2 -2 -3 -4 -2 -1 1 1 2 1 -1 -2 -0 -0 -1 -1 1 1 1 3 3 5 6 4 -0 -1 0 0 -1
-5 -5 -5 -4 -4 -3 -2 -1 -1 0 1 1 1 2 2 2 3 3 3 3 2 1 -0 -2 -1 -1 -1 -3 -2 -3 -4 -4 -4 -4 -4 -5 -5 -4 -3 -2 -2 -2 -2 -3 -2 -2 -1 1 1 0 -1 -2 0 -0 -1 -0 3 3 1 0 2 5 7 4 0 0 2 0 -0
-4 -3 -3 -3 -3 -2 -2 -2 -2 -2 -1 -1 -1 -0 0 1 2 2 3 3 2 1 0 -0 -0 -0 -0 -1 -2 -3 -4 -3 -3 -3 -4 -4 -3 -3 -4 -4 -3 -2 -2 -2 -2 -2 -2 -0 0 -0 -1 -1 1 0 -0 2 4 3 1 -2 2 5 6 3 2 2 2 -1 -1
-4 -3 -2 -2 -1 -1 -1 -0 -1 -1 -2 -2 -2 -2 -2 -2 -1 -2 -2 -1 -2 -2 -2 -1 -2 -2 -2 -1 -2 -3 -3 -3 -3 -3 -3 -3 -3 -3 -3 -3 -3 -3 -3 -3 -2 -2 -2 -1 -1 -1 -1 0 1 0 1 3 5 3 0 -1 3 4 4 3 4 3 1 -0 -0
-5 -5 -4 -3 -2 -1 -1 -1 -1 -2 -2 -2 -2 -3 -3 -3 -3 -3 -4 -4 -4 -3 -3 -4 -4 -3 -3 -2 -2 -2 -2 -2 -3 -3 -3 -4 -4 -3 -2 -3 -3 -4 -3 -3 -3 -3 -2 -1 -1 -2 -2 -0 1 1 2 5 6 3 0 0 2 2 3 6 4 2 2 1 0
-6 -6 -5 -5 -4 -3 -2 -1 -1 -1 -2 -2 -2 -3 -3 -3 -3 -4 -4 -3 -3 -3 -2 -2 -2 -3 -3 -3 -3 -3 -2 -2 -2 -3 -3 -5 -4 -4 -3 -4 -3 -2 -2 -3 -3 -3 -2 -0 -1 -3 -4 -2 -0 0 2 6 4 2 0 1 -1 2 5 5 3 3 3 1 -0
-5 -5 -5 -4 -4 -4 -3 -2 -1 -1 -0 -0 -0 -1 -1 -2 -2 -2 -2 -2 -2 -1 -1 -2 -2 -2 -2 -3 -4 -4 -3 -3 -3 -2 -2 -3 -4 -4 -4 -4 -2 -2 -2 -3 -2 -2 -2 -1 -1 -4 -5 -4 -2 -1 1 4 3 1 0 -0 -0 3 6 3 3 4 3 -0 1
-3 -3 -3 -3 -3 -4 -4 -3 -3 -2 -1 -0 0 0 0 -0 -1 -1 -1 -1 -2 -1 -1 -2 -1 -1 -2 -3 -3 -3 -3 -3 -2 -2 -2 -2 -3 -3 -3 -3 -2 -2 -2 -0 -0 -2 -2 -1 -1 -3 -5 -4 -2 -0 1 4 2 1 -1 -1 0 3 4 2 4 4 2 1 2
-2 -2 -2 -2 -3 -3 -4 -4 -4 -4 -3 -2 -2 -1 -0 -0 -0 -1 -1 -1 -1 -1 -1 -1 -1 -1 -2 -3 -2 -2 -2 -2 -1 -1 -1 -1 -2 -2 -2 -1 -2 -2 -1 1 1 0 -1 -1 -2 -4 -5 -3 -1 0 1 3 2 -0 -2 -2 0 1 2 2 4 3 2 2 2
-3 -3 -2 -2 -2 -3 -3 -3 -4 -4 -5 -4 -4 -3 -3 -2 -1 -1 -1 -1 -1 -0 -0 -0 -2 -3 -4 -3 -3 -2 -2 -1 -1 -1 -1 -1 -1 -1 -1 -1 -1 -1 -0 1 2 2 1 -0 -3 -5 -5 -3 -1 -0 -0 1 1 -0 -1 -1 1 1 1 1 2 3 2 1 1
-4 -3 -3 -2 -2 -2 -2 -2 -2 -3 -4 -4 -5 -5 -5 -4 -3 -3 -2 -2 -1 -0 -0 -0 -2 -3 -3 -3 -2 -2 -2 -2 -2 -2 -2 -2 -1 -0 -0 -0 -0 -0 0 1 3 3 2 -0 -2 -4 -4 -3 -1 -1 -1 -2 -1 -2 -2 -2 0 1 0 -0 2 2 2 1 2
-4 -3 -3 -2 -2 -1 -1 -0 -0 -1 -1 -2 -3 -4 -4 -5 -4 -4 -3 -2 -1 0 0 -0 -0 0 1 1 -0 -1 -1 -2 -2 -2 -1 -1 -1 -0 -0 -1 -0 -0 0 1 3 3 2 0 0 -1 -2 -3 -2 -1 -2 -3 -3 -4 -5 -5 -1 1 0 -0 2 3 3 3 2
-2 -2 -2 -2 -2 -2 -1 -0 1 2 2 1 0 -1 -2 -3 -4 -4 -4 -3 -1 0 1 1 1 3 4 5 4 3 2 1 0 1 3 3 3 1 0 -1 -0 -0 -0 -0 1 1 1 1 2 1 -1 -2 -2 -2 -2 -2 -2 -4 -6 -5 -0 1 1 2 4 5 5 4 1
-2 -2 -2 -3 -4 -4 -3 -2 -0 1 2 3 3 3 2 1 -1 -2 -3 -2 -1 -0 1 3 5 6 7 9 10 10 8 6 4 5 6 7 5 3 1 -0 -1 -1 -1 -1 -0 0 1 1 2 2 1 -1 -2 -2 -2 -0 -1 -2 -2 0 3 4 4 4 5 6 5 3 -0
-3 -4 -4 -5 -5 -5 -5 -4 -3 -1 0 1 2 4 5 5 3 1 -1 -3 -3 -2 1 6 9 11 12 13 15 16 15 12 9 7 6 6 6 6 5 3 1 0 -1 -1 -1 -0 1 2 2 2 2 1 -1 -1 -1 -1 -0 0 2 3 4 5 5 4 4 4 3 2 0
-5 -5 -5 -5 -6 -6 -5 -5 -4 -2 -1 -0 -0 1 4 7 7 5 2 -2 -2 1 6 11 12 13 14 17 20 21 20 17 13 10 8 8 9 11 13 12 8 4 1 -0 -1 -1 0 1 2 3 3 2 1 1 0 -1 -0 0 1 2 3 4 4 3 2 1 2 2 1
-5 -5 -4 -4 -4 -5 -4 -4 -3 -2 -1 -1 -1 -1 1 4 8 9 7 4 5 8 12 14 14 13 14 16 20 21 19 15 11 10 10 11 11 13 16 17 14 10 6 1 -0 -0 0 2 3 3 3 3 3 3 2 2 1 1 1 2 3 4 3 2 1 1 3 4 2
-5 -4 -3 -2 -2 -2 -2 -3 -3 -3 -2 -1 -1 -1 -1 1 5 9 11 10 7 6 5 5 4 4 4 6 8 9 8 6 5 6 7 8 9 9 10 10 10 10 7 3 0 -0 1 2 3 3 4 4 5 5 5 5 3 3 3 4 4 4 3 2 2 4 6 6 4
-4 -3 -2 -1 -0 -0 -0 -2 -3 -3 -3 -3 -2 -2 -1 -1 0 4 7 11 8 5 2 -0 -1 -2 -1 -1 -0 -0 -0 0 2 3 4 4 5 4 3 2 3 4 5 3 1 0 0 1 2 3 4 4 5 5 5 5 4 3 3 3 3 3 3 3 4 5 6 6 4
-3 -3 -2 -2 -1 -0 -0 -1 -2 -3 -4 -4 -4 -3 -2 -2 -2 -2 1 4 7 7 5 2 -0 -2 -2 -2 -2 -2 -2 -2 -0 1 2 2 3 3 3 4 5 6 7 6 5 3 3 2 3 3 4 3 3 2 2 2 2 2 3 3 3 3 3 2 3 3 3 3 3
-2 -2 -2 -2 -2 -1 -1 -1 -1 -2 -3 -4 -4 -3 -3 -2 -2 -2 -2 -1 2 6 8 6 2 -1 -3 -3 -3 -3 -2 -2 -1 0 2 4 6 7 7 8 10 13 15 15 13 12 10 7 4 3 3 2 1 1 -0 -1 -0 0 1 3 2 2 1 0 -0 0 1 2 2
-1 -2 -2 -2 -2 -2 -2 -1 -1 -1 -1 -2 -3 -3 -3 -2 -1 -1 -1 -1 -0 2 6 9 7 4 1 -1 -2 -1 -1 0 1 2 4 6 7 7 7 8 15 23 28 28 22 17 11 4 -0 -2 -2 -2 -1 -0 0 -0 -0 0 1 2 1 1 -0 -2 -2 -2 0 2 3
-0 -0 -1 -2 -2 -2 -2 -1 -1 -0 0 0 -0 -1 -2 -2 -1 -1 -0 -0 -0 1 3 6 9 9 8 5 4 3 3 3 2 2 3 6 10 10 10 11 19 25 27 24 17 11 5 0 -3 -5 -5 -3 -2 -0 1 2 2 2 2 2 2 1 0 -1 -1 -0 1 3 3
1 1 0 -0 -0 -0 -1 -1 -1 0 1 2 2 1 -0 -1 -1 -0 0 1 1 1 1 2 5 7 9 10 9 8 7 6 3 2 4 13 20 23 21 16 12 9 8 8 7 6 3 2 1 0 0 1 1 2 2 3 4 4 5 4 3 3 3 3 3 3 3 4 3
1 1 1 2 2 2 2 1 2 2 2 2 2 2 1 0 -0 -0 -0 0 0 1 1 1 1 2 3 6 9 10 10 10 8 7 11 20 27 30 28 20 11 5 3 4 6 6 6 4 4 4 4 5 4 3 2 2 3 5 6 7 6 5 5 5 5 5 5 5 3
-1 0 1 2 3 3 4 5 4 3 3 3 3 3 3 3 1 -0 -1 -2 -1 -1 -1 -1 -1 -1 -0 1 4 7 10 12 12 14 17 22 26 28 28 26 18 10 4 2 4 5 4 3 3 3 3 3 3 3 3 3 3 4 6 7 7 6 5 4 4 4 4 4 3
-1 -0 0 0 1 2 3 4 4 4 5 5 5 5 5 4 3 1 -1 -2 -2 -3 -3 -3 -2 -2 -2 -1 -0 2 4 7 10 14 17 19 22 26 30 33 31 23 14 7 5 3 3 2 2 2 1 1 1 1 2 3 3 3 4 5 5 6 5 4 4 4 4 3 3
-1 -1 -1 -1 -0 1 1 2 3 5 6 6 6 6 6 6 5 4 2 1 -1 -1 -1 -2 -2 -2 -2 -2 -2 -1 -0 1 2 3 6 8 11 15 21 29 35 36 32 24 17 12 9 6 5 4 3 3 3 2 1 1 1 1 1 2 3 4 5 4 4 4 3 3 3
-1 -1 -1 -1 -1 -0 -0 1 2 3 3 4 5 5 6 6 6 6 5 4 3 2 2 1 0 -1 -1 -2 -2 -2 -2 -1 -1 -1 -1 -1 -0 0 2 7 15 24 30 31 26 20 16 12 8 5 4 4 5 6 6 6 5 3 1 1 1 2 3 3 3 3 3 3 3
-1 -1 -1 -1 -1 -1 -0 -0 0 1 1 1 2 3 4 5 5 6 7 7 6 4 3 3 3 2 1 0 -1 -1 -2 -2 -1 -1 -1 -1 -1 -1 -2 -2 -2 1 7 14 18 19 16 11 6 3 2 2 4 6 8 10 10 8 6 3 3 3 3 3 3 3 3 3 3
-0 0 0 -0 -0 -0 -0 -0 -1 -1 -0 -0 0 1 1 2 4 5 7 7 6 5 3 3 3 4 4 3 2 1 0 -1 -1 -0 0 1 0 0 0 -0 -2 -3 -3 -0 6 12 14 12 10 9 8 6 3 2 2 2 4 6 7 7 5 6 6 5 3 2 2 3 2
0 1 1 1 1 1 1 0 0 -0 -0 -0 -0 -0 -0 -0 0 2 3 5 6 6 6 4 3 3 4 5 4 3 2 1 1 1 1 2 2 2 2 2 -0 -1 -2 -2 -1 3 8 17 24 29 30 30 23 14 5 -2 -2 1 4 6 5 4 5 5 5 5 5 4 3
1 1 1 2 2 2 2 2 1 1 1 0 -0 -0 -0 -1 -1 -1 -0 1 4 6 6 6 4 3 2 3 4 4 3 2 2 1 2 2 3 3 3 3 2 -0 -2 -2 -3 -3 -0 9 25 35 40 39 37 33 26 15 7 4 6 8 6 3 2 2 6 9 10 8 6
1 1 1 1 2 2 2 2 2 2 2 2 2 1 1 1 1 -0 -1 -1 0 2 3 5 5 3 1 -0 1 2 3 2 1 1 1 2 3 3 3 3 3 1 -1 -2 -3 -4 -4 -1 13 26 34 35 33 34 37 37 27 18 11 10 10 8 6 5 6 6 7 9 7
2 2 1 1 1 2 2 2 3 3 3 3 3 3 2 2 2 1 1 -1 -2 -2 0 2 4 4 3 1 -0 0 1 2 2 1 -0 0 1 2 3 4 3 2 -0 -3 -4 -4 -4 -3 3 14 24 31 28 28 32 40 40 31 19 9 9 11 13 15 11 7 3 3 4
1 1 1 1 1 1 2 2 2 2 2 2 3 3 3 3 2 2 2 1 -1 -2 -2 -1 2 4 5 4 1 -0 -1 0 1 1 0 -1 -0 0 1 2 3 3 1 -2 -5 -5 -5 -3 -1 6 15 26 26 25 25 30 36 34 26 13 7 7 10 15 15 11 6 1 1
-0 0 0 0 0 0 0 1 1 1 1 1 1 2 2 2 2 2 2 2 1 -1 -3 -4 -2 1 3 5 4 1 -1 -2 -1 0 0 -0 -1 -1 -0 0 2 3 3 1 -3 -6 -6 -5 -3 1 8 18 23 23 21 21 26 28 26 17 7 2 1 3 6 6 5 2 1
-1 -1 -1 -0 -1 -1 -1 -1 -1 -0 -0 -0 -1 -1 -1 -1 -0 -0 0 1 1 0 -1 -4 -4 -3 -1 2 3 3 1 -2 -3 -2 -1 -0 -0 -1 -1 -1 -1 1 2 3 0 -3 -6 -7 -5 -2 2 10 16 19 19 18 19 19 18 13 5 0 -2 -2 -1 -0 1 2 2
-1 -1 -1 -1 -1 -1 -2 -2 -2 -2 -2 -1 -2 -2 -2 -2 -2 -2 -2 -2 -2 -1 -2 -3 -4 -5 -5 -3 1 2 3 1 -1 -3 -3 -2 -1 -0 -1 -2 -2 -1 0 2 2 1 -2 -5 -6 -5 -2 2 7 11 13 16 16 13 9 3 -1 -3 -4 -3 -2 -2 -1 -0 0
-1 -2 -2 -2 -2 -2 -2 -3 -3 -3 -3 -3 -3 -2 -2 -2 -3 -3 -3 -4 -4 -3 -3 -3 -4 -6 -7 -7 -5 -2 1 2 1 -1 -2 -4 -3 -2 -0 -0 -1 -2 -2 -1 1 1 1 -1 -4 -5 -5 -3 -0 2 5 8 10 9 6 2 1 -0 -1 -2 -2 -2 -1 -1 -1
Height
5590 5590 5590 5590 5590 5590 5590 5589 5589 5589 5588 5588 5587 5587 5587 5587 5587 5587 5587 5587 5587 5587 5587 5587 5587 5587 5587 5587 5587 5587 5587 5588 5588 5589 5591 5592 5594 5596 5598 5601 5603 5606 5610 5613 5617 5620 5623 5625 5627 5629 5632 5634 5638 5641 5644 5648 5651 5655 5658 5661 5664 5667 5669 5671 5672 5675 5677 5680 5682
5588 5587 5587 5586 5586 5586 5585 5585 5585 5585 5584 5584 5583 5583 5583 5583 5583 5583 5583 5583 5582 5582 5582 5582 5582 5582 5582 5582 5582 5581 5581 5582 5582 5583 5584 5585 5587 5589 5591 5594 5596 5599 5602 5606 5609 5613 5616 5618 5621 5623 5625 5628 5632 5635 5638 5642 5646 5649 5652 5655 5658 5661 5663 5665 5667 5670 5673 5675 5676
5586 5585 5585 5584 5583 5583 5582 5582 5581 5581 5580 5580 5579 5579 5579 5578 5578 5578 5578 5578 5578 5577 5577 5577 5577 5577 5577 5576 5575 5575 5575 5576 5577 5577 5578 5579 5581 5582 5585 5587 5590 5592 5595 5599 5602 5606 5609 5612 5614 5617 5619 5622 5626 5629 5633 5637 5640 5643 5646 5649 5652 5656 5658 5660 5662 5665 5668 5670 5672
5585 5584 5583 5582 5581 5581 5580 5579 5578 5578 5577 5577 5576 5576 5575 5575 5575 5574 5574 5573 5573 5573 5572 5572 5571 5571 5571 5570 5570 5569 5569 5570 5570 5571 5572 5573 5575 5576 5578 5580 5582 5585 5588 5591 5595 5598 5602 5605 5607 5610 5613 5616 5620 5624 5627 5631 5635 5637 5640 5643 5647 5650 5653 5655 5657 5660 5662 5664 5667
5584 5583 5582 5581 5580 5579 5578 5577 5576 5575 5574 5574 5573 5573 5572 5572 5571 5571 5570 5569 5569 5568 5567 5567 5566 5565 5565 5565 5564 5564 5564 5564 5564 5565 5566 5567 5568 5570 5572 5573 5576 5578 5581 5584 5587 5591 5595 5598 5601 5604 5607 5610 5614 5617 5621 5625 5629 5631 5634 5637 5641 5644 5647 5650 5652 5655 5657 5660 5662
5584 5582 5581 5580 5579 5577 5576 5575 5574 5573 5572 5571 5571 5570 5570 5569 5568 5567 5566 5565 5564 5563 5563 5562 5561 5560 5560 5560 5559 5559 5559 5559 5559 5559 5559 5560 5561 5562 5564 5567 5569 5571 5574 5577 5580 5584 5587 5591 5594 5597 5600 5604 5607 5611 5615 5619 5622 5625 5628 5631 5635 5638 5642 5645 5647 5650 5652 5655 5657
5584 5582 5581 5579 5577 5576 5575 5573 5572 5571 5570 5569 5568 5568 5567 5566 5565 5564 5562 5562 5560 5559 5558 5557 5557 5556 5555 5555 5554 5554 5554 5554 5553 5553 5553 5554 5554 5556 5557 5559 5562 5564 5567 5570 5573 5576 5580 5584 5587 5590 5593 5597 5601 5605 5609 5612 5616 5618 5622 5626 5629 5633 5636 5640 5643 5646 5648 5650 5653
5585 5583 5581 5579 5577 5575 5573 5572 5570 5569 5568 5567 5566 5565 5564 5562 5561 5560 5559 5558 5557 5556 5555 5554 5553 5552 5552 5551 5550 5549 5549 5549 5548 5548 5548 5548 5548 5549 5551 5552 5554 5557 5560 5563 5566 5569 5572 5576 5579 5582 5585 5590 5594 5598 5602 5606 5609 5612 5616 5620 5623 5627 5631 5634 5637 5640 5643 5645 5648
5584 5582 5581 5579 5577 5576 5574 5572 5569 5568 5566 5565 5563 5562 5561 5559 5558 5557 5556 5554 5553 5552 5551 5550 5549 5549 5548 5547 5546 5546 5545 5544 5544 5543 5543 5543 5543 5543 5544 5546 5548 5550 5552 5556 5558 5562 5565 5568 5572 5574 5578 5583 5587 5592 5596 5600 5603 5606 5610 5614 5618 5622 5626 5628 5632 5635 5637 5641 5643
5582 5581 5579 5578 5576 5575 5573 5571 5570 5567 5566 5564 5562 5560 5558 5557 5556 5554 5553 5552 5551 5549 5548 5547 5547 5546 5545 5544 5543 5542 5541 5541 5540 5539 5539 5538 5538 5538 5539 5540 5541 5543 5545 5548 5552 5554 5557 5561 5564 5567 5571 5576 5581 5586 5590 5594 5597 5600 5604 5608 5612 5616 5620 5623 5627 5629 5632 5635 5638
5581 5579 5577 5576 5575 5573 5572 5570 5568 5567 5565 5564 5562 5560 5558 5556 5554 5553 5551 5550 5548 5547 5546 5545 5544 5543 5542 5541 5540 5539 5538 5537 5536 5535 5535 5534 5534 5534 5534 5534 5536 5537 5539 5542 5545 5547 5550 5553 5556 5559 5564 5569 5575 5580 5584 5588 5592 5595 5598 5602 5607 5611 5614 5617 5621 5624 5627 5629 5633
5579 5578 5576 5575 5574 5572 5571 5569 5567 5566 5564 5562 5561 5559 5557 5556 5554 5552 5550 5548 5547 5546 5545 5543 5542 5541 5540 5539 5538 5537 5536 5535 5533 5532 5532 5531 5530 5530 5530 5530 5531 5532 5533 5535 5538 5540 5543 5545 5549 5553 5558 5563 5568 5573 5578 5582 5586 5589 5593 5597 5601 5605 5608 5612 5616 5619 5622 5625 5628
5579 5577 5576 5574 5573 5571 5570 5569 5567 5565 5563 5562 5560 5558 5556 5554 5552 5550 5549 5547 5547 5545 5543 5542 5541 5540 5538 5537 5536 5535 5534 5532 5532 5530 5529 5528 5528 5527 5527 5527 5527 5528 5529 5530 5532 5534 5536 5539 5543 5547 5551 5556 5561 5566 5571 5576 5580 5583 5587 5591 5596 5600 5604 5607 5611 5614 5617 5620 5623
5579 5577 5575 5574 5572 5571 5569 5568 5567 5565 5563 5561 5559 5557 5555 5553 5551 5549 5547 5546 5545 5544 5542 5541 5540 5538 5537 5536 5534 5533 5532 5531 5530 5529 5528 5527 5527 5526 5525 5525 5525 5525 5525 5526 5527 5529 5531 5533 5537 5541 5545 5549 5554 5559 5564 5568 5573 5577 5581 5586 5590 5595 5599 5603 5606 5609 5612 5614 5617
5577 5576 5574 5573 5571 5570 5568 5567 5565 5564 5562 5560 5558 5556 5554 5552 5550 5548 5546 5545 5544 5542 5541 5540 5538 5537 5536 5534 5532 5531 5531 5530 5529 5528 5527 5526 5526 5525 5523 5522 5522 5522 5522 5522 5523 5524 5526 5528 5531 5535 5538 5543 5548 5553 5557 5562 5567 5571 5576 5581 5585 5590 5594 5598 5601 5604 5606 5608 5611
5576 5574 5573 5572 5570 5569 5567 5566 5564 5563 5561 5559 5557 5555 5553 5551 5549 5547 5546 5544 5542 5541 5539 5537 5536 5535 5534 5533 5532 5531 5530 5529 5527 5527 5525 5525 5524 5523 5522 5521 5520 5519 5519 5519 5519 5520 5522 5523 5526 5529 5533 5537 5542 5547 5552 5556 5561 5566 5571 5576 5581 5585 5589 5592 5596 5598 5601 5603 5606
5574 5572 5571 5570 5569 5567 5566 5565 5563 5562 5560 5558 5556 5554 5552 5550 5548 5546 5544 5542 5541 5539 5537 5536 5535 5534 5534 5534 5533 5533 5532 5530 5528 5527 5525 5523 5523 5523 5522 5521 5519 5518 5517 5517 5516 5517 5518 5519 5522 5525 5528 5532 5536 5541 5546 5550 5555 5560 5565 5570 5575 5579 5583 5586 5590 5593 5595 5597 5601
5573 5572 5570 5569 5567 5566 5565 5564 5563 5561 5559 5557 5555 5553 5551 5549 5548 5546 5544 5542 5541 5540 5539 5537 5535 5534 5533 5533 5533 5533 5532 5531 5528 5526 5525 5523 5522 5522 5522 5521 5520 5518 5516 5515 5514 5514 5515 5516 5518 5521 5523 5527 5531 5535 5540 5545 5550 5554 5559 5564 5569 5574 5577 5581 5585 5587 5591 5594 5597
5574 5572 5570 5569 5567 5566 5564 5563 5562 5560 5558 5556 5554 5552 5550 5548 5547 5546 5544 5542 5541 5539 5537 5535 5532 5531 5530 5529 5528 5528 5527 5526 5524 5523 5522 5521 5520 5519 5518 5518 5517 5516 5516 5514 5513 5512 5512 5513 5515 5517 5520 5523 5527 5531 5535 5540 5544 5549 5554 5559 5563 5568 5572 5575 5579 5582 5586 5589 5592
5574 5572 5571 5569 5567 5565 5563 5562 5560 5559 5557 5555 5553 5551 5549 5547 5546 5544 5542 5541 5539 5537 5535 5533 5531 5529 5528 5527 5525 5524 5523 5522 5521 5520 5519 5518 5517 5516 5515 5514 5514 5513 5513 5513 5512 5512 5511 5511 5512 5514 5517 5519 5522 5526 5530 5534 5538 5543 5548 5553 5557 5562 5566 5570 5573 5577 5580 5583 5586
5575 5573 5571 5569 5567 5565 5563 5561 5559 5557 5556 5554 5552 5550 5548 5547 5545 5543 5541 5540 5539 5538 5536 5535 5533 5531 5529 5527 5525 5524 5523 5522 5521 5519 5518 5516 5515 5514 5513 5512 5512 5512 5512 5513 5512 5511 5511 5511 5511 5512 5514 5517 5519 5522 5526 5530 5533 5537 5542 5547 5552 5556 5560 5564 5568 5572 5575 5578 5581
5575 5573 5571 5569 5567 5565 5562 5561 5558 5557 5555 5553 5551 5550 5548 5546 5544 5542 5541 5539 5538 5537 5536 5535 5533 5532 5530 5527 5526 5524 5523 5521 5520 5519 5517 5516 5515 5514 5512 5512 5512 5512 5513 5515 5515 5515 5515 5514 5513 5512 5513 5515 5516 5519 5522 5527 5530 5533 5537 5542 5546 5551 5555 5558 5562 5565 5569 5573 5576
5575 5573 5571 5569 5567 5564 5562 5560 5558 5556 5554 5552 5551 5549 5547 5546 5544 5542 5540 5539 5537 5536 5535 5534 5533 5531 5530 5528 5526 5524 5523 5521 5519 5518 5517 5516 5515 5514 5513 5512 5513 5514 5517 5518 5521 5522 5522 5519 5516 5514 5514 5514 5515 5516 5518 5522 5527 5530 5534 5537 5542 5546 5550 5554 5557 5561 5565 5569 5572
5575 5573 5571 5568 5566 5564 5562 5560 5558 5556 5554 5552 5550 5548 5547 5545 5543 5542 5540 5538 5537 5535 5534 5533 5532 5531 5529 5527 5526 5524 5522 5521 5519 5517 5516 5515 5514 5515 5515 5515 5517 5517 5517 5516 5516 5515 5514 5512 5512 5511 5511 5512 5513 5515 5517 5520 5524 5528 5531 5534 5538 5542 5546 5550 5554 5558 5562 5565 5568
5575 5573 5571 5568 5566 5564 5562 5560 5558 5556 5554 5552 5550 5548 5547 5545 5543 5542 5540 5538 5537 5535 5533 5531 5530 5529 5528 5527 5525 5523 5522 5520 5519 5517 5516 5515 5515 5516 5517 5517 5517 5515 5513 5512 5511 5510 5508 5508 5508 5508 5508 5509 5511 5513 5516 5520 5523 5526 5529 5532 5536 5539 5543 5546 5550 5554 5557 5560 5564
5575 5573 5571 5568 5567 5564 5562 5560 5558 5556 5554 5552 5550 5548 5546 5544 5542 5541 5539 5537 5536 5534 5532 5531 5529 5527 5526 5525 5523 5522 5521 5519 5518 5517 5515 5515 5515 5515 5515 5516 5515 5513 5512 5511 5510 5508 5507 5507 5507 5507 5507 5508 5510 5512 5515 5517 5521 5525 5527 5530 5533 5536 5539 5543 5546 5550 5553 5557 5560
5574 5572 5571 5568 5567 5564 5562 5560 5558 5556 5554 5552 5550 5547 5546 5543 5542 5540 5538 5536 5534 5532 5531 5529 5528 5526 5525 5523 5522 5521 5520 5518 5517 5516 5515 5514 5514 5513 5513 5513 5513 5512 5510 5508 5507 5507 5506 5505 5505 5505 5506 5507 5509 5511 5513 5516 5519 5522 5525 5528 5531 5533 5536 5539 5542 5546 5549 5552 5556
5573 5572 5570 5568 5566 5564 5562 5560 5558 5556 5553 5552 5549 5547 5545 5543 5541 5539 5537 5535 5533 5531 5529 5528 5526 5525 5524 5522 5521 5519 5517 5516 5515 5514 5513 5512 5512 5512 5512 5512 5512 5511 5510 5508 5506 5505 5505 5505 5505 5505 5506 5507 5508 5510 5512 5515 5517 5520 5523 5526 5528 5531 5533 5536 5539 5542 5545 5548 5552
5572 5570 5568 5567 5565 5563 5562 5560 5557 5555 5553 5551 5548 5546 5544 5542 5540 5538 5536 5534 5533 5531 5529 5527 5525 5523 5522 5521 5519 5518 5516 5514 5513 5512 5511 5510 5510 5510 5510 5510 5511 5511 5511 5510 5508 5507 5506 5506 5505 5505 5505 5506 5508 5510 5512 5514 5516 5518 5521 5523 5525 5528 5530 5533 5535 5538 5541 5544 5547
5571 5569 5567 5566 5564 5562 5560 5559 5557 5555 5552 5550 5548 5545 5543 5541 5539 5537 5535 5533 5532 5530 5528 5527 5524 5522 5521 5519 5517 5516 5514 5513 5512 5510 5509 5508 5507 5507 5506 5507 5507 5508 5509 5509 5509 5509 5508 5507 5507 5506 5505 5506 5507 5509 5511 5513 5514 5517 5519 5520 5522 5524 5527 5529 5532 5535 5537 5540 5543
5569 5567 5566 5564 5562 5560 5559 5557 5555 5553 5552 5549 5547 5545 5542 5540 5538 5535 5533 5532 5530 5528 5527 5525 5524 5522 5519 5517 5516 5514 5512 5511 5510 5509 5507 5507 5506 5506 5505 5504 5503 5503 5504 5505 5506 5507 5507 5507 5506 5506 5505 5505 5506 5508 5509 5511 5512 5514 5517 5519 5521 5522 5524 5526 5528 5531 5534 5536 5539
5568 5566 5564 5562 5561 5559 5557 5555 5553 5552 5550 5548 5546 5544 5542 5539 5537 5534 5532 5529 5527 5526 5524 5523 5522 5521 5518 5517 5514 5512 5511 5509 5508 5507 5506 5505 5504 5503 5503 5503 5502 5501 5501 5501 5501 5503 5504 5506 5506 5506 5506 5506 5506 5506 5507 5509 5511 5512 5514 5516 5518 5520 5522 5523 5525 5528 5530 5533 5535
5567 5565 5563 5561 5559 5557 5555 5553 5552 5550 5548 5546 5544 5543 5541 5539 5536 5534 5531 5528 5525 5523 5521 5520 5519 5517 5516 5515 5513 5511 5509 5507 5506 5505 5504 5503 5502 5501 5500 5500 5500 5499 5499 5498 5498 5498 5500 5502 5504 5505 5506 5507 5507 5507 5506 5507 5509 5511 5512 5513 5514 5517 5519 5521 5523 5525 5527 5529 5532
5566 5564 5562 5560 5558 5556 5554 5552 5550 5548 5546 5544 5542 5540 5539 5537 5535 5533 5530 5527 5524 5521 5518 5516 5514 5513 5512 5511 5510 5508 5507 5505 5503 5502 5501 5500 5499 5498 5497 5497 5497 5497 5496 5496 5496 5496 5495 5496 5498 5500 5501 5502 5503 5505 5506 5506 5506 5508 5510 5512 5513 5513 5514 5517 5520 5522 5523 5524 5526
5565 5563 5561 5559 5557 5555 5552 5550 5548 5546 5544 5542 5540 5538 5536 5535 5533 5531 5529 5526 5523 5520 5517 5514 5511 5509 5507 5507 5506 5505 5503 5502 5500 5499 5498 5497 5496 5495 5494 5494 5493 5493 5493 5493 5493 5493 5492 5491 5491 5493 5495 5497 5498 5500 5502 5503 5504 5505 5506 5508 5510 5512 5513 5514 5516 5518 5520 5521 5522
5564 5562 5560 5557 5555 5553 5551 5549 5547 5545 5542 5540 5538 5536 5534 5532 5530 5528 5526 5524 5522 5519 5516 5512 5509 5506 5504 5502 5501 5500 5499 5498 5497 5495 5494 5493 5492 5492 5491 5490 5490 5490 5490 5490 5490 5490 5490 5489 5487 5488 5490 5492 5494 5495 5497 5499 5500 5502 5503 5504 5506 5508 5511 5512 5512 5513 5516 5518 5520
5563 5561 5558 5556 5554 5552 5550 5547 5545 5543 5541 5538 5536 5533 5531 5529 5527 5525 5522 5521 5519 5517 5514 5511 5507 5504 5501 5498 5496 5495 5494 5493 5492 5491 5490 5490 5489 5488 5487 5487 5486 5486 5486 5486 5487 5487 5487 5486 5485 5484 5485 5488 5490 5491 5492 5494 5496 5498 5499 5501 5502 5504 5507 5509 5509 5509 5511 5513 5517
5562 5560 5557 5555 5553 5550 5548 5546 5543 5541 5539 5536 5534 5531 5529 5526 5524 5521 5519 5517 5514 5512 5510 5508 5505 5502 5498 5495 5492 5490 5488 5487 5487 5487 5486 5485 5484 5484 5483 5483 5482 5482 5482 5482 5482 5483 5483 5482 5482 5481 5482 5484 5485 5487 5488 5490 5492 5493 5495 5497 5498 5499 5501 5503 5504 5506 5507 5507 5509
5560 5558 5556 5554 5551 5549 5547 5544 5542 5539 5537 5534 5532 5529 5526 5523 5521 5518 5515 5512 5510 5507 5505 5503 5501 5498 5495 5492 5488 5485 5483 5482 5481 5481 5480 5480 5479 5479 5479 5479 5478 5478 5478 5478 5478 5479 5479 5479 5479 5478 5478 5479 5481 5482 5484 5485 5487 5488 5490 5492 5493 5494 5495 5497 5498 5500 5502 5503 5505
5559 5557 5554 5552 5550 5547 5545 5542 5540 5537 5535 5532 5529 5527 5524 5521 5518 5515 5512 5509 5506 5502 5500 5497 5495 5493 5491 5488 5485 5482 5479 5477 5475 5474 5474 5474 5474 5473 5473 5473 5473 5473 5473 5473 5473 5474 5474 5475 5475 5475 5475 5475 5476 5477 5479 5481 5482 5484 5486 5487 5488 5490 5491 5492 5493 5495 5497 5499 5502
5557 5555 5552 5550 5548 5546 5543 5540 5538 5535 5533 5530 5527 5524 5522 5518 5515 5512 5509 5506 5502 5499 5496 5493 5490 5487 5485 5483 5481 5477 5474 5472 5470 5468 5467 5467 5467 5467 5467 5467 5468 5468 5468 5468 5468 5468 5469 5470 5470 5471 5471 5471 5472 5473 5474 5476 5478 5479 5481 5483 5484 5486 5487 5488 5489 5491 5492 5494 5497